Location: Gokavaram
(16.9752°N, 81.0696°E)
Time: 10:29:39
(UTC+00:00)

COBE Rocket - Pass Details

Date: 15 May 2026
Orbit: 675 x 772 km, 97.1° (Epoch: 6 June)

Event Time Altitude Azimuth Distance (km) Brightness Sun altitude
Rises 13:15:13 0° 10° (N) 3,205 7.4 -4.3°
Reaches altitude 10° 13:17:32 10° 9° (N) 2,268 6.6 -4.8°
Maximum altitude 13:22:32 85° 282° (WNW) 742 4.0 -5.9°
Drops below altitude 10° 13:27:24 10° 193° (SSW) 2,203 6.3 -7.0°
Sets 13:29:38 0° 192° (SSW) 3,107 7.0 -7.5°
